Tracking 22879 objects as of 21-Apr-2021
HD Live streaming from Space Station
objects crossing your sky now

COSMOS 647

Track COSMOS 647 now!
10-day predictions
COSMOS 647 is classified as:


NORAD ID: 7271
Int'l Code: 1974-024G
Perigee: 1,429.5 km
Apogee: 1,490.1 km
Inclination: 74.0 °
Period: 114.9 minutes
Semi major axis: 7830 km
RCS: 0.7018 m2 (medium)
Launch date: April 23, 1974
Source: Commonwealth of Independent States (former USSR) (CIS)
Launch site: PLESETSK MISSILE AND SPACE COMPLEX (PKMTR)
aabbcc
Your satellite tracking list
Your tracking list is empty




NASA's NSSDC Master Catalog

Two Line Element Set (TLE):
1  7271U 74024G   21111.16853174 -.00000021  00000-0 -31835-4 0  9994
2  7271  74.0173 170.7930 0038639 136.7226 252.3620 12.52835671149491
Source of the keplerian elements: AFSPC